Simultaneous Nadir Overpasses (SNOs) Predictions

Prediction of SNOs between LANDSAT-8 and TERRA Satellite Orbit:

Table of predicted SNOs for the next 14.0 days since TLE Epoch: 1/6/2024
Index Date (LANDSAT-8) Time (LANDSAT-8) Lat,Lon (LANDSAT-8) SZA (LANDSAT-8 ) Date (TERRA) Time (TERRA) Lat,Lon (TERRA) SZA (TERRA ) Distance(km) Time Diff (sec)
1 01/15/2024 13:47:13 -81.72,-134.01 71.83 01/15/2024 13:48:24 -81.72,-133.81 71.77 3.30 71
2 01/15/2024 14:36:39 81.72, 33.79 108.19 01/15/2024 14:37:46 81.72, 33.85 108.23 1.02 67
3 01/15/2024 15:26:05 -81.71,-158.27 71.79 01/15/2024 15:27:07 -81.71,-158.38 71.77 1.69 62
4 01/15/2024 16:15:32 81.72, 9.11 108.18 01/15/2024 16:16:29 81.71, 9.28 108.23 2.78 57
5 01/15/2024 17:04:58 -81.71, 177.05 71.80 01/15/2024 17:05:50 -81.71, 177.05 71.77 0.19 52
6 01/15/2024 17:54:24 81.71, -15.16 108.22 01/15/2024 17:55:12 81.71, -15.30 108.23 2.25 48
7 01/15/2024 18:43:51 -81.71, 152.37 71.80 01/15/2024 18:44:33 -81.70, 152.48 71.77 1.87 42
8 01/15/2024 19:33:17 81.70, -39.84 108.21 01/15/2024 19:33:55 81.70, -39.87 108.23 0.51 38
9 01/15/2024 20:22:44 -81.71, 127.69 71.81 01/15/2024 20:23:17 -81.71, 127.50 71.82 3.13 33
10 01/15/2024 21:12:10 81.70, -64.52 108.21 01/15/2024 21:12:38 81.70, -64.44 108.23 1.28 28
11 01/15/2024 22:01:37 -81.71, 103.01 71.82 01/15/2024 22:02:00 -81.71, 102.93 71.82 1.38 23
12 01/15/2024 22:51:03 81.70, -89.20 108.20 01/15/2024 22:51:21 81.70, -89.01 108.23 3.03 18
13 01/15/2024 23:40:29 -81.69, 78.74 71.78 01/15/2024 23:40:42 -81.69, 78.77 71.77 0.48 13
14 01/16/2024 00:29:55 81.69,-113.46 108.24 01/16/2024 00:30:04 81.69,-113.59 108.23 2.01 9
15 01/16/2024 01:19:22 -81.69, 54.06 71.79 01/16/2024 01:19:25 -81.69, 54.19 71.77 2.19 3
16 01/16/2024 02:08:48 81.69,-138.14 108.23 01/16/2024 02:08:47 81.69,-138.16 108.23 0.31 1
17 01/16/2024 02:58:15 -81.69, 29.38 71.79 01/16/2024 02:58:09 -81.70, 29.22 71.82 2.82 6
18 01/16/2024 03:47:41 81.69,-162.82 108.22 01/16/2024 03:47:30 81.68,-162.73 108.23 1.53 11
19 01/16/2024 04:37:08 -81.69, 4.70 71.80 01/16/2024 04:36:52 -81.69, 4.64 71.82 1.06 16
20 01/16/2024 05:26:34 81.69, 172.50 108.21 01/16/2024 05:26:13 81.68, 172.69 108.23 3.28 21
21 01/16/2024 06:16:01 -81.69, -19.98 71.81 01/16/2024 06:15:35 -81.69, -19.93 71.82 0.75 26
22 01/16/2024 07:05:26 81.67, 148.23 108.26 01/16/2024 07:04:56 81.68, 148.12 108.23 1.77 30
23 01/16/2024 07:54:53 -81.68, -44.24 71.77 01/16/2024 07:54:17 -81.67, -44.10 71.77 2.50 36
24 01/16/2024 08:44:19 81.67, 123.55 108.25 01/16/2024 08:43:39 81.67, 123.55 108.23 0.20 40
25 01/16/2024 09:33:46 -81.68, -68.92 71.78 01/16/2024 09:33:01 -81.68, -69.07 71.82 2.51 45
26 01/16/2024 10:23:12 81.67, 98.87 108.24 01/16/2024 10:22:22 81.67, 98.97 108.22 1.76 50
27 01/16/2024 11:12:39 -81.67, -93.60 71.79 01/16/2024 11:11:44 -81.68, -93.65 71.82 0.76 55
28 01/16/2024 12:02:04 81.66, 74.60 108.28 01/16/2024 12:01:05 81.66, 74.40 108.22 3.29 59
29 01/16/2024 12:51:32 -81.67,-118.28 71.79 01/16/2024 12:50:27 -81.67,-118.22 71.82 1.04 65



Historial Predications of SNOs between LANDSAT-8 and TERRA
